Regional Weather Roundup
Issued by NWS

Home | Current Version | Previous Version | Text Only | Print | Product List | Glossary On
Versions: 1 2 3 4 5 6 7 8 9 10 11 12 13 14 15 16 17 18 19 20 21 22 23 24 25 26 27 28 29 30 31 32 33 34 35 36 37 38 39 40 41 42 43 44 45 46 47 48 49 50
000
ASUS43 KMKX 210221
RWRWI

WISCONSIN REGIONAL WEATHER ROUNDUP
NATIONAL WEATHER SERVICE MILWAUKEE/SULLIVAN WI
900 PM CDT MON OCT 20 2014

NOTE: "FAIR" INDICATES FEW OR NO CLOUDS BELOW 12,000 FEET WITH NO
SIGNIFICANT WEATHER AND/OR OBSTRUCTIONS TO VISIBILITY.

WIZ001-002-006>008-014>016-023>028-210300-
NORTHWEST WISCONSIN

CITY           SKY/WX    TMP DP  RH WIND       PRES   REMARKS
SUPERIOR ARPT  CLOUDY    47  38  71 CALM      30.09S
ASHLAND        CLOUDY    48  40  73 NE9       30.09R
HAYWARD        CLOUDY    48  39  71 N6        30.08R
SIREN          CLOUDY    49  38  65 NE6       30.08R
CUMBERLAND     CLOUDY    46  37  71 N5        30.07R
RICE LAKE      CLOUDY    49  40  70 N3        30.08R
CHETEK         CLOUDY    47  41  80 CALM      30.07R
LADYSMITH      CLOUDY    49  40  70 N8        30.07R
EAU CLAIRE     PTCLDY    48  37  65 N7        30.05R
MENOMONIE      PTCLDY    46  38  73 CALM      30.06R
NEW RICHMOND   CLEAR     42  37  83 CALM      30.07R
OSCEOLA        CLEAR     44  38  81 CALM      30.10R
$$

WIZ003>005-009-010-017-018-210300-
NORTH CENTRAL WISCONSIN

CITY           SKY/WX    TMP DP  RH WIND       PRES   REMARKS
MANITOWISH WTR CLOUDY    42  41  95 N7        30.05R
ARBOR VITAE    LGT RAIN  44  42  93 NE10G16   30.05R
WOODRUFF       LGT RAIN  44  42  93 NE10G16   30.05R
RHINELANDER    CLOUDY    42  41  96 N3        30.05R
EAGLE RIVER    LGT RAIN  40  40  97 N3        30.04R
LAND O LAKES   CLOUDY    41  38  89 N8        30.06R
PHILLIPS       CLOUDY    45  39  79 N5        30.05R
TOMAHAWK       CLOUDY    44  40  85 CALM      30.05R
MEDFORD        CLOUDY    46  39  78 N5        30.05R
MERRILL        CLOUDY    46  41  80 N7        30.04S
$$

WIZ029-030-035-036-043>047-210300-
CENTRAL WISCONSIN

CITY           SKY/WX    TMP DP  RH WIND       PRES   REMARKS
WAUSAU         CLOUDY    47  40  76 CALM      30.03R
MOSINEE        CLOUDY    46  41  81 N6        30.05R
MARSHFIELD     CLOUDY    50  40  68 N3        30.04R
STEVENS POINT  CLOUDY    46  38  76 N5        30.04R
WAUPACA        CLOUDY    51  42  70 N5        30.03R
WAUTOMA        CLOUDY    51  41  69 N6        30.03R
WISC RAPIDS    CLOUDY    50  40  68 N6        30.05R
CAMP DOUGLAS   MOCLDY    52  41  66 NW3       30.04R
$$

WIZ011>013-019>022-031-037>040-048>050-210300-
NORTHEAST WISCONSIN

CITY           SKY/WX    TMP DP  RH WIND       PRES   REMARKS
ANTIGO         MOCLDY    41  39  93 N7        30.03R
SHAWANO        CLOUDY    49  41  72 N7        30.03S
OCONTO         CLOUDY    47  42  82 N7        30.01R
STURGEON BAY   CLOUDY    46  37  71 N14G24    30.01R
GREEN BAY      CLOUDY    48  42  80 N12       30.01R
MANITOWOC      CLOUDY    48  43  82 NW8       30.00R
APPLETON       CLOUDY    48  43  81 NE7       30.02R
CLINTONVILLE   CLOUDY    48  41  76 NE3       30.03R
OSHKOSH        CLOUDY    51  42  71 N12       30.01R
$$

WIZ032>034-041-042-053>061-210300-
SOUTHWEST WISCONSIN

CITY           SKY/WX    TMP DP  RH WIND       PRES   REMARKS
LA CROSSE      CLEAR     51  41  68 N5        30.04R
SPARTA         CLOUDY    51  38  61 CALM      30.05R
VIROQUA        CLEAR     46  38  74 NE3       30.04R
BOSCOBEL       CLEAR     47  40  76 NE3       30.03R
PRAIRIE DU CHI CLEAR     54  39  57 N5        30.02R
PLATTEVILLE    PTCLDY    48  40  75 NE6       30.03R
$$

WIZ056-057-062-063-064-067-068-210300-
SOUTH CENTRAL WISCONSIN

CITY           SKY/WX    TMP DP  RH WIND       PRES   REMARKS
REEDSBURG      CLOUDY    52  40  64 NE6       30.03R
BARABOO/DELLS  CLOUDY    51  39  62 N3        30.03R
LONE ROCK      CLOUDY    56  39  53 NE6       30.03R
MINERAL POINT  MOCLDY    50  37  62 N5        30.02R
MADISON        CLOUDY    51  42  71 N3        30.02R
MIDDLETON      PTCLDY    52  39  61 NE9       30.02R
WATERTOWN      CLOUDY    49  43  78 CALM      30.01R
MONROE         CLOUDY    50  41  71 NE3       30.00R
JANESVILLE     CLOUDY    54  41  62 N6        30.00R
$$

WIZ051-052-058>065-066-070>072-210300-
SOUTHEAST WISCONSIN

CITY           SKY/WX    TMP DP  RH WIND       PRES   REMARKS
MILWAUKEE      MOCLDY    51  42  71 N8        30.00R
WAUKESHA       NOT AVBL
MILWAUKEE/TIMM CLOUDY    52  41  66 N8        30.01R
RACINE         CLOUDY    51  42  71 NW6       30.01R
BURLINGTON     CLOUDY    50  40  68 N6        30.00R
KENOSHA        CLOUDY    52  42  69 NW8       30.00R
FOND DU LAC    CLOUDY    50  43  77 NW6       30.01R
SHEBOYGAN      CLOUDY    49  43  80 NW9       30.00R
WEST BEND      CLOUDY    50  41  71 NW3       30.00S
JUNEAU         CLOUDY    48  43  80 NW3       30.02S
$$

LSZ147-162-210300-
LAKE SUPERIOR

STATION/POSITION TIME  TEMP    WIND        PRES    WAVE
                       AIR SEA DIR/SP/G            HT/PER
                 (UTC) (F)     (DEG/KT/KT) (MB)    (FT/S)
W MID LAKE BUOY  0150   45 46   30/ 19/ 23 1019.1R   3/ 4
DEVILS ISLAND    0200   48      50/ 10/ 12 1019.8R
PORT WING        0140   50      20/ 11/ 12 1019.0R
SAXON HARBOR     0100   49      40/ 12/ 15 1017.9R
$$

LMZ867-665-643>646-210300-
LAKE MICHIGAN

STATION/POSITION TIME  TEMP    WIND        PRES    WAVE
                       AIR SEA DIR/SP/G            HT/PER
                 (UTC) (F)     (DEG/KT/KT) (MB)    (FT/S)
CHAMBERS ISLAND  0100   48     330/ 17/ 21 1015.6R
N MID LAKE BUOY  0150   47 52  330/ 21/ 25 1014.5R   5/ 5
NORTHPORT PIER   0200   47     340/ 21/ 26 1015.6S
KEWAUNEE LAKESHO 0100          350/  3/  5   N/A
SHEBOYGAN LAKESH 0200   50 50  320/ 13/ 15 1016.1R
PORT WASHINGTON  0140   51     320/  3/  5 1016.3R
ATWATER BUOY     0200   52     350/ 10/ 12 1016.7R
MILWAUKEE LAKESH 0200   52     340/  8/ 10   N/A
S MID LAKE BUOY  0150   52 55  340/ 12/ 16 1015.0R   3/ 5
KENOSHA   LAKESH 0200   53     320/  7/ 11 1015.6R
$$

TC  - TEMPERATURE IN CELSIUS
VSB - VISIBILITY IN STATUTE MILES
WCI - WIND CHILL INDEX
HX  - HEAT INDEX



USA.gov is the U.S. government's official web portal to all federal, state and local government web resources and services.